Location: Cardiff
(53.7833°N, 113.6000°W)
Time: 03:18:49
(UTC+00:00)

ACS3 Solar Sail - Visible Passes

Search period start: 19 January 2026 00:00
Search period end: 29 January 2026 00:00
Orbit: 898 x 978 km, 97.2° (Epoch: 18 January)

Date Brightness Start Highest point End Pass type
(mag) Time Alt. Az. Time Alt. Az. Time Alt. Az.
19 Jan 4.2 10:42:37 10° N 10:43:11 13° N 10:43:11 13° N visible
19 Jan 3.9 12:26:30 10° N 12:27:03 12° NNW 12:27:03 12° NNW visible
20 Jan 4.1 10:56:34 10° N 10:57:15 13° N 10:57:15 13° N visible
20 Jan 3.9 12:40:45 10° NNW 12:41:07 11° NNW 12:41:07 11° NNW visible
21 Jan 4.0 11:10:31 10° N 11:11:18 14° N 11:11:18 14° N visible
22 Jan 4.5 09:41:28 10° NNE 09:41:29 10° NNE 09:41:29 10° NNE visible
22 Jan 4.0 11:24:29 10° N 11:25:21 14° N 11:25:21 14° N visible
23 Jan 4.4 09:55:16 10° NNE 09:55:32 11° NNE 09:55:32 11° NNE visible
23 Jan 3.9 11:38:29 10° N 11:39:24 14° N 11:39:24 14° N visible
24 Jan 4.3 10:09:05 10° NNE 10:09:34 12° NNE 10:09:34 12° NNE visible
24 Jan 3.9 11:52:30 10° N 11:53:25 14° N 11:53:25 14° N visible
25 Jan 4.2 10:22:55 10° NNE 10:23:36 14° NNE 10:23:36 14° NNE visible
25 Jan 3.9 12:06:33 10° N 12:07:26 13° NNW 12:07:26 13° NNW visible
26 Jan 4.1 10:36:47 10° N 10:37:37 14° N 10:37:37 14° N visible
26 Jan 3.8 12:20:40 10° N 12:21:28 12° NNW 12:21:28 12° NNW visible
27 Jan 4.0 10:50:39 10° N 10:51:37 15° N 10:51:37 15° N visible
27 Jan 3.8 12:34:52 10° NNW 12:35:28 11° NNW 12:35:28 11° NNW visible
28 Jan 4.6 09:21:44 10° NNE 09:21:45 10° NNE 09:21:45 10° NNE visible
28 Jan 3.9 11:04:32 10° N 11:05:36 15° N 11:05:36 15° N visible
28 Jan 3.9 12:49:17 10° NNW 12:49:28 10° NNW 12:49:28 10° NNW visible
